#datint,netname,site,siteID,timestamp,IntT_Avg,BattV_Min,AirT2_Avg,AirT_Avg,AirT_Max,AirT_Min,SolarW_Avg,SolarMJ,WindS_Max,WindS_Avg,WindD_Avg,WindD_SD,EA_Avg,RH_Max,RH_Min,Td_Avg,Td_Max,Td_Min,ETo,ETr,SoilT4_Avg,SoilT8_Avg,SoilVWC8_Avg,wetstate_Avg,wetT_Avg,precip_accum,Precip_WPG,Precip_TB,Rso
hly,AgWx,beryljct,423,26OCT2019:00:00:00,32.0,12.87,28.8,29.2,34.0,27.9,0,0.0001,2.0,0.7,332,1.1,0.319,66,49,16.5,18.3,13.9,-0.00067,-0.00096,46.5,49.6,8,.,.,5.79,0.00,0.00,1E-6
hly,AgWx,beryljct,423,26OCT2019:01:00:00,30.2,12.81,27.8,27.7,31.1,24.3,0,0.0002,4.0,2.2,168,27,0.292,70,49,14.7,18.0,11.2,-0.00022,-0.00023,45.6,49.4,8,.,.,5.79,0.00,0.00,1E-6
hly,AgWx,beryljct,423,26OCT2019:02:00:00,29.0,12.77,28.2,28.1,30.5,25.8,0,0.0001,4.0,1.9,173,5.1,0.307,67,48,15.3,18.1,10.7,-0.00030,-0.00036,44.7,49.2,8,.,.,5.80,0.00,0.00,1E-6
hly,AgWx,beryljct,423,26OCT2019:03:00:00,28.2,12.75,27.1,26.4,28.7,24.7,0,0.0001,7.2,2.0,289,14,0.291,68,52,14.7,17.8,12.0,-0.00034,-0.00044,44.0,48.9,8,.,.,5.80,0.00,0.00,1E-6
hly,AgWx,beryljct,423,26OCT2019:04:00:00,27.1,12.71,25.1,25.5,27.7,23.2,0,0.0002,6.5,2.3,324,18,0.290,68,52,14.0,15.6,12.2,-0.00029,-0.00036,43.3,48.7,8,.,.,5.80,0.00,0.00,1E-6
hly,AgWx,beryljct,423,26OCT2019:05:00:00,27.1,12.69,27.2,27.0,29.0,23.9,0,0.0001,5.8,2.6,197,33,0.316,67,60,16.3,18.3,14.4,-0.00026,-0.00034,42.6,48.4,8,.,.,5.80,0.00,0.00,0.0004266741
hly,AgWx,beryljct,423,26OCT2019:06:00:00,26.7,12.68,26.3,25.8,27.8,23.3,0,0.0012,9.4,5.0,143,19,0.314,68,63,15.9,17.5,13.5,0.00067,0.00116,42.1,48.1,8,.,.,5.80,0.00,0.00,0.129444464
hly,AgWx,beryljct,423,26OCT2019:07:00:00,26.9,12.7,24.8,24.4,27.1,22.2,58,0.2097,5.0,2.1,306,21,0.301,70,64,15.0,16.9,13.0,0.00104,0.00136,41.5,47.8,8,.,.,5.80,0.00,0.00,0.7237885
hly,AgWx,beryljct,423,26OCT2019:08:00:00,34.5,14.6,37.5,35.0,42.2,27.1,224,0.8058,4.7,1.3,193,21,0.389,65,46,20.1,24.0,16.7,0.00364,0.00418,41.1,47.5,8,.,.,5.80,0.00,0.00,1.3858665
hly,AgWx,beryljct,423,26OCT2019:09:00:00,48.5,14.45,51.2,48.5,58.1,42.2,400,1.4405,4.8,2.2,105,21,0.488,48,31,26.1,31.4,23.2,0.00823,0.00961,41.0,47.2,8,.,.,5.78,0.00,0.00,1.9091625
hly,AgWx,beryljct,423,26OCT2019:10:00:00,61.9,13.79,65.7,64.6,67.5,58.2,544,1.9572,14.3,7.9,194,20,0.432,36,18,24.6,31.7,22.1,0.01645,0.02195,41.8,46.9,8,.,.,5.77,0.00,0.00,2.2620913
hly,AgWx,beryljct,423,26OCT2019:11:00:00,69.0,13.67,70.2,69.4,71.1,67.3,638,2.2973,15.5,8.8,220,19,0.431,19,15,23.1,25.1,21.0,0.02002,0.02675,43.5,46.8,8,.,.,5.76,0.00,0.00,2.3956958
hly,AgWx,beryljct,423,26OCT2019:12:00:00,72.1,13.63,71.5,71.2,72.4,70.2,673,2.4240,17.4,9.0,245,20,0.415,17,15,22.5,24.7,21.0,0.02134,0.02851,45.6,46.7,8,.,.,5.75,0.00,0.00,2.2960709
hly,AgWx,beryljct,423,26OCT2019:13:00:00,73.5,13.6,72.2,72.1,73.1,71.2,646,2.3247,20.6,11.8,235,15,0.404,16,14,22.2,24.3,19.9,0.02236,0.03113,48.0,46.8,8,.,.,5.75,0.00,0.00,1.9731118
hly,AgWx,beryljct,423,26OCT2019:14:00:00,74.2,13.55,71.0,71.6,72.4,70.2,547,1.9678,21.0,12.3,220,15,0.415,17,15,22.3,24.3,20.8,0.02018,0.02896,50.1,47.2,8,.,.,5.75,0.00,0.00,1.4555216
hly,AgWx,beryljct,423,26OCT2019:15:00:00,72.7,13.6,69.2,69.5,70.7,68.1,417,1.5024,22.3,15.1,194,11,0.395,18,16,21.8,23.3,20.8,0.01806,0.02757,51.8,47.6,8,.,.,5.76,0.00,0.00,0.8008841
hly,AgWx,beryljct,423,26OCT2019:16:00:00,69.7,13.6,66.1,66.6,68.3,65.1,247,0.8887,20.9,15.9,194,8.4,0.378,18,16,20.5,22.0,19.5,0.01262,0.01985,52.9,48.2,8,.,.,5.76,0.00,0.00,0.176970729
hly,AgWx,beryljct,423,26OCT2019:17:00:00,64.9,13.18,61.6,62.3,65.1,59.7,69,0.2475,19.6,12.9,189,7.4,0.361,20,17,19.4,20.3,18.9,0.00465,0.00565,53.3,48.8,8,.,.,5.76,0.01,0.00,0.002092396
hly,AgWx,beryljct,423,26OCT2019:18:00:00,59.4,13.1,58.8,58.8,59.8,57.9,1,0.0025,22.7,14.8,196,6.7,0.359,22,20,19.1,19.5,18.9,0.00403,0.00482,53.0,49.4,8,.,.,5.77,0.00,0.00,1E-6
hly,AgWx,beryljct,423,26OCT2019:19:00:00,57.9,13.05,57.6,58.0,58.9,57.0,0,0.0001,23.3,16.6,193,6.7,0.368,23,21,19.8,20.2,19.4,0.00410,0.00482,52.4,49.8,8,.,.,5.76,0.00,0.00,1E-6
hly,AgWx,beryljct,423,26OCT2019:20:00:00,56.3,13.02,56.5,56.6,57.3,54.7,0,0.0001,18.1,11.8,184,11,0.374,26,23,20.2,20.7,19.8,0.00320,0.00393,51.8,50.1,8,.,.,5.77,0.00,0.00,1E-6
hly,AgWx,beryljct,423,26OCT2019:21:00:00,52.3,12.99,50.8,51.7,55.2,48.5,0,0.0002,7.2,2.8,140,58,0.369,34,25,20.1,21.5,19.1,0.00035,0.00064,51.2,50.4,8,.,.,5.77,0.01,0.00,1E-6
hly,AgWx,beryljct,423,26OCT2019:22:00:00,52.6,12.96,57.3,56.9,57.9,52.4,0,0.0001,15.0,8.6,207,12,0.366,28,22,19.8,20.6,19.3,0.00264,0.00340,50.4,50.5,8,.,.,5.77,0.00,0.00,1E-6
hly,AgWx,bigpiney,439,26OCT2019:00:00:00,29.6,12.58,27.3,28.2,30.3,26.7,0,0.0001,6.2,1.7,303,43,0.379,76,67,20.6,22.6,18.7,-0.00047,-0.00059,38.2,39.1,44,0,0.0,5.47,0.00,0.00,1E-6
hly,AgWx,bigpiney,439,26OCT2019:01:00:00,28.7,12.54,26.4,26.5,30.5,22.3,0,0.0001,6.8,2.4,37,42,0.358,83,66,19.3,22.5,16.4,-0.00036,-0.00043,38.1,39.1,44,0,0.0,5.47,0.00,0.00,1E-6
hly,AgWx,bigpiney,439,26OCT2019:02:00:00,27.0,12.52,25.4,25.7,27.6,22.3,0,0.0001,5.8,2.6,325,32,0.363,83,73,19.6,21.0,16.7,-0.00033,-0.00038,38.0,39.2,44,0,0.0,5.47,0.00,0.00,1E-6
hly,AgWx,bigpiney,439,26OCT2019:03:00:00,25.6,12.49,24.5,24.7,26.4,22.7,0,0.0001,5.9,2.7,318,38,0.349,83,75,19.1,20.9,16.7,-0.00033,-0.00039,37.8,39.2,44,0,0.0,5.47,0.00,0.00,1E-6
hly,AgWx,bigpiney,439,26OCT2019:04:00:00,24.1,12.45,25.7,24.9,27.6,21.8,0,0.0001,9.4,2.4,316,59,0.370,84,72,19.4,21.9,14.5,-0.00038,-0.00047,37.7,39.1,44,0,0.0,5.47,0.00,0.00,1E-6
hly,AgWx,bigpiney,439,26OCT2019:05:00:00,23.6,12.41,23.7,23.3,27.3,20.6,0,0.0001,8.6,2.8,254,49,0.338,88,71,18.2,21.7,14.7,-0.00032,-0.00038,37.6,39.2,44,0,0.0,5.47,0.00,0.00,1E-6
hly,AgWx,bigpiney,439,26OCT2019:06:00:00,22.8,12.37,24.3,22.3,24.3,18.5,1,0.0027,5.6,2.0,284,46,0.359,88,78,17.9,20.3,12.8,-0.00042,-0.00052,37.5,39.2,44,0,0.0,5.47,0.00,0.00,0.001557304
hly,AgWx,bigpiney,439,26OCT2019:07:00:00,22.3,12.54,21.3,21.5,24.9,19.8,38,0.1356,8.6,2.3,253,44,0.323,88,77,17.3,20.5,14.2,-0.00017,-0.00010,37.4,39.1,44,0,0.0,5.47,0.00,0.00,0.153918164
hly,AgWx,bigpiney,439,26OCT2019:08:00:00,24.8,12.55,31.1,26.9,40.8,21.5,166,0.5966,14.4,2.4,250,42,0.429,87,61,21.7,28.3,17.4,0.00186,0.00217,37.3,39.1,44,0,0.0,5.47,0.00,0.00,0.7155817
hly,AgWx,bigpiney,439,26OCT2019:09:00:00,39.7,14.42,46.8,46.0,49.1,41.2,372,1.3393,25.0,10.0,274,34,0.451,59,36,25.4,28.2,23.3,0.00803,0.01106,37.2,39.1,44,0,0.0,5.47,0.00,0.00,1.302787
hly,AgWx,bigpiney,439,26OCT2019:10:00:00,49.9,13.98,48.2,48.0,48.9,47.4,503,1.8108,24.6,17.2,276,12,0.458,41,37,24.8,25.8,23.6,0.01153,0.01630,37.1,39.1,44,0,0.0,5.47,0.00,0.00,1.7633599
hly,AgWx,bigpiney,439,26OCT2019:11:00:00,52.3,13.97,48.0,47.7,60.9,46.1,579,2.0854,24.8,16.6,264,12,0.471,45,39,25.5,36.9,24.3,0.01232,0.01690,37.0,39.0,44,0,0.0,5.47,0.00,0.00,2.0387312
hly,AgWx,bigpiney,439,26OCT2019:12:00:00,51.6,14.01,44.5,45.1,47.1,42.6,512,1.8420,23.5,15.4,258,11,0.496,53,44,26.7,28.0,25.4,0.01039,0.01407,37.0,39.0,44,0,0.0,5.47,0.00,0.00,2.1052673
hly,AgWx,bigpiney,439,26OCT2019:13:00:00,48.3,14.12,41.0,41.4,43.3,39.5,370,1.3308,20.9,14.4,255,10,0.503,62,52,27.1,29.4,25.8,0.00741,0.01010,37.0,39.0,44,0,0.0,5.47,0.00,0.00,1.9610134
hly,AgWx,bigpiney,439,26OCT2019:14:00:00,45.4,14.22,36.6,37.2,39.6,35.4,201,0.7253,16.5,9.8,326,15,0.539,76,58,28.5,30.2,25.5,0.00401,0.00534,37.2,38.9,44,0,0.0,5.47,0.00,0.00,1.6142754
hly,AgWx,bigpiney,439,26OCT2019:15:00:00,42.0,13.38,34.8,34.2,35.4,33.2,151,0.5420,12.9,8.0,313,12,0.529,84,72,28.5,30.0,26.9,0.00245,0.00317,37.4,38.9,44,0,0.0,5.47,0.00,0.00,1.1036492
hly,AgWx,bigpiney,439,26OCT2019:16:00:00,40.2,12.96,35.5,35.6,36.4,33.5,87,0.3115,6.9,3.9,286,17,0.396,72,51,22.6,27.2,17.4,0.00153,0.00234,37.6,38.9,44,0,0.0,5.47,0.00,0.00,0.49714323
hly,AgWx,bigpiney,439,26OCT2019:17:00:00,37.2,12.78,31.0,31.0,33.5,28.6,10,0.0357,9.4,5.3,304,9.8,0.319,59,50,16.6,17.5,15.4,0.00069,0.00131,37.8,39.0,44,0,0.0,5.47,0.00,0.00,0.0532006082
hly,AgWx,bigpiney,439,26OCT2019:18:00:00,32.8,12.73,28.2,28.0,29.1,26.8,0,0.0001,15.1,7.5,281,7.8,0.268,58,45,13.0,15.3,10.4,0.00073,0.00088,37.9,39.0,44,0,0.0,5.47,0.00,0.00,1E-6
hly,AgWx,bigpiney,439,26OCT2019:19:00:00,30.5,12.68,26.4,26.1,28.9,19.6,0,0.0001,15.4,7.2,239,18,0.247,61,45,10.4,12.1,7.4,0.00066,0.00081,37.9,39.0,44,0,0.0,5.47,0.00,0.00,1E-6
hly,AgWx,bigpiney,439,26OCT2019:20:00:00,26.5,12.65,23.2,24.3,27.4,17.1,0,0.0001,7.2,3.3,195,43,0.239,68,47,9.7,11.2,7.3,0.00034,0.00047,37.9,39.0,44,0,0.0,5.47,0.00,0.00,1E-6
hly,AgWx,bigpiney,439,26OCT2019:21:00:00,23.4,12.61,19.8,19.9,22.2,16.7,0,0.0001,10.2,4.1,94,25,0.268,83,59,11.7,16.7,6.6,0.00017,0.00024,37.8,39.0,44,0,0.0,5.47,0.00,0.00,1E-6
hly,AgWx,bigpiney,439,26OCT2019:22:00:00,24.6,12.58,22.4,21.8,22.2,21.2,0,0.0001,13.5,7.7,159,9.9,0.321,83,75,16.8,17.7,15.4,0.00020,0.00024,37.7,39.0,44,0,0.0,5.47,0.00,0.00,1E-6
hly,AgWx,bigpiney,439,26OCT2019:23:00:00,25.7,12.57,23.0,22.4,22.6,22.2,0,0.0000,15.2,9.8,175,12,0.295,75,71,15.2,15.4,14.7,0.00009,0.00011,37.7,39.1,44,0,0.0,5.47,0.00,0.00,2.5E-7
hly,AgWx,blo,425,26OCT2019:00:00:00,38.0,12.93,41.3,40.5,43.6,37.4,0,0.0001,6.8,3.5,241,23,0.497,68,52,27.0,27.8,26.4,-0.00000,0.00009,42.1,44.1,19,100,41.5,11.64,0.00,0.00,1E-6
hly,AgWx,blo,425,26OCT2019:01:00:00,37.8,12.91,42.5,41.1,44.3,38.7,0,0.0001,4.5,1.7,153,43,0.500,66,50,26.9,28.7,25.9,-0.00048,-0.00060,41.4,43.8,19,100,41.4,11.63,0.00,0.00,1E-6
hly,AgWx,blo,425,26OCT2019:02:00:00,36.5,12.89,38.9,38.9,40.4,37.2,0,0.0001,5.5,2.0,150,46,0.615,79,61,31.1,33.6,26.8,-0.00054,-0.00068,40.8,43.5,19,100,39.8,11.63,0.00,0.00,1E-6
hly,AgWx,blo,425,26OCT2019:03:00:00,36.7,12.86,43.0,41.9,45.4,37.4,0,0.0001,10.7,4.1,288,23,0.476,78,41,26.3,31.3,23.1,0.00022,0.00036,40.3,43.2,19,100,42.3,11.63,0.00,0.00,1E-6
hly,AgWx,blo,425,26OCT2019:04:00:00,39.5,12.83,44.2,43.5,46.6,39.2,0,0.0001,17.7,6.6,225,46,0.429,63,36,23.7,28.5,21.2,0.00075,0.00095,39.8,42.9,19,100,44.5,11.63,0.00,0.00,1E-6
hly,AgWx,blo,425,26OCT2019:05:00:00,43.1,12.8,46.6,46.1,46.9,44.1,0,0.0001,23.0,12.4,239,14,0.391,50,36,21.3,27.0,20.9,0.00192,0.00231,39.5,42.6,19,100,47.3,11.63,0.01,0.00,1E-6
hly,AgWx,blo,425,26OCT2019:06:00:00,44.5,12.79,45.8,45.8,46.5,45.1,0,0.0016,19.8,13.7,247,12,0.395,39,36,21.3,21.8,21.0,0.00203,0.00240,39.4,42.4,19,100,47.1,11.63,0.00,0.00,0.0007267942
hly,AgWx,blo,425,26OCT2019:07:00:00,44.9,12.81,46.5,45.8,47.2,44.8,63,0.2255,17.7,11.6,245,12,0.414,40,38,22.4,23.0,21.7,0.00347,0.00610,39.3,42.1,19,72,49.5,11.63,0.01,0.00,0.131057698
hly,AgWx,blo,425,26OCT2019:08:00:00,48.5,14.49,49.6,48.9,50.7,47.1,217,0.7827,17.8,10.2,250,18,0.423,38,34,22.8,24.6,22.0,0.00643,0.01004,39.4,41.9,19,0,57.0,11.64,0.00,0.00,0.6819001
hly,AgWx,blo,425,26OCT2019:09:00:00,52.1,14.45,49.8,49.5,50.7,48.3,376,1.3542,19.6,10.5,271,19,0.428,37,34,23.5,24.9,22.0,0.00928,0.01315,39.9,41.7,19,0,59.7,11.63,0.00,0.00,1.2864598
hly,AgWx,blo,425,26OCT2019:10:00:00,53.2,14.04,48.7,48.9,50.3,47.8,503,1.8097,20.0,10.5,260,22,0.494,47,34,26.1,29.7,21.9,0.01098,0.01465,41.2,41.7,19,0,60.3,11.63,0.00,0.00,1.757641
hly,AgWx,blo,425,26OCT2019:11:00:00,53.9,14.02,49.8,49.2,50.6,47.3,542,1.9500,16.3,7.2,291,31,0.526,46,43,28.2,29.8,27.2,0.01139,0.01427,43.0,41.8,19,0,63.2,11.63,0.00,0.00,2.0479545
hly,AgWx,blo,425,26OCT2019:12:00:00,53.5,14.03,47.0,47.7,51.1,45.9,377,1.3560,13.5,6.6,305,31,0.526,49,42,28.2,29.6,27.4,0.00874,0.01116,45.1,42.2,19,0,60.2,11.63,0.00,0.00,2.1359639
hly,AgWx,blo,425,26OCT2019:13:00:00,52.2,14.03,44.0,45.3,48.4,41.6,438,1.5755,18.2,8.5,249,42,0.541,59,48,29.3,31.4,28.0,0.00884,0.01125,46.7,42.8,19,0,57.0,11.63,0.00,0.00,2.0058548
hly,AgWx,blo,425,26OCT2019:14:00:00,47.7,13.81,41.3,41.2,42.8,40.2,182,0.6569,22.5,10.0,296,23,0.416,58,41,23.6,28.9,18.7,0.00546,0.00786,47.8,43.6,19,2,48.4,11.64,0.01,0.00,1.6884215
hly,AgWx,blo,425,26OCT2019:15:00:00,43.8,13.36,37.9,38.3,40.5,35.8,63,0.2274,16.7,7.3,288,28,0.297,45,33,15.1,18.5,12.0,0.00375,0.00589,47.8,44.2,19,98,43.8,11.64,0.00,0.00,1.1961005
hly,AgWx,blo,425,26OCT2019:16:00:00,40.2,13.2,35.6,35.1,35.8,34.6,40,0.1434,12.8,5.5,276,22,0.292,47,35,15.1,17.1,10.3,0.00236,0.00380,47.1,44.8,19,100,40.3,11.64,0.00,0.00,0.57130464
hly,AgWx,blo,425,26OCT2019:17:00:00,38.0,13.06,34.4,34.2,35.4,33.1,13,0.0467,14.5,4.7,309,17,0.267,44,35,12.0,13.9,10.5,0.00126,0.00220,46.2,45.1,19,100,37.7,11.64,0.00,0.00,0.076317212
hly,AgWx,blo,425,26OCT2019:18:00:00,35.6,13.03,32.7,32.3,33.8,30.6,0,0.0001,8.1,3.7,295,13,0.286,49,43,13.9,14.4,13.3,0.00083,0.00109,45.3,45.2,19,100,34.8,11.64,0.00,0.00,1E-6
hly,AgWx,blo,425,26OCT2019:19:00:00,32.5,12.99,30.1,29.9,31.9,27.3,0,0.0001,10.5,5.1,285,17,0.308,60,47,15.4,16.7,13.8,0.00077,0.00097,44.2,45.1,19,100,31.8,11.65,0.00,0.00,1E-6
hly,AgWx,blo,425,26OCT2019:20:00:00,30.3,12.97,29.4,28.9,30.5,27.6,0,0.0001,10.3,4.5,295,35,0.315,62,54,16.3,16.9,15.4,0.00061,0.00078,43.2,45.0,19,100,30.5,11.65,0.00,0.00,1E-6
hly,AgWx,blo,425,26OCT2019:21:00:00,28.7,12.94,27.7,27.7,29.8,25.9,0,0.0001,7.3,3.7,325,27,0.319,75,55,16.2,19.3,14.9,0.00049,0.00065,42.1,44.7,19,100,29.7,11.64,0.00,0.00,1E-6
hly,AgWx,blo,425,26OCT2019:22:00:00,26.8,12.92,24.5,24.7,25.9,21.7,0,0.0001,5.1,2.8,311,22,0.350,83,75,18.9,20.3,17.1,0.00022,0.00030,41.1,44.3,19,100,26.7,11.64,0.00,0.00,1E-6
hly,AgWx,blo,425,26OCT2019:23:00:00,25.1,12.92,25.0,23.7,24.6,21.9,0,0.0000,4.0,2.8,257,15,0.348,84,78,18.5,19.1,17.5,0.00005,0.00007,40.6,44.1,19,100,25.6,11.64,0.00,0.00,2.5E-7
hly,AgWx,bloomfield,441,26OCT2019:00:00:00,33.0,12.33,30.2,30.3,31.7,29.4,6,0.0216,6.6,4.6,126,6.7,0.200,37,34,6.0,6.7,5.5,0.00054,0.00075,50.0,47.5,32,0,0.0,5.61,0.00,0.00,1E-6
hly,AgWx,bloomfield,441,26OCT2019:01:00:00,32.4,12.25,30.0,29.5,30.7,28.3,6,0.0211,6.3,3.9,135,8.8,0.197,37,34,5.6,6.5,4.9,0.00039,0.00058,49.5,47.2,32,0,0.0,5.61,0.00,0.00,1E-6
hly,AgWx,bloomfield,441,26OCT2019:02:00:00,31.2,12.24,27.1,27.1,29.2,24.8,6,0.0210,5.7,3.2,112,10,0.195,42,37,5.4,6.4,3.8,0.00019,0.00032,49.1,46.8,32,0,0.0,5.61,0.00,0.00,1E-6
hly,AgWx,bloomfield,441,26OCT2019:03:00:00,29.5,12.26,26.3,26.1,27.3,24.7,6,0.0210,6.7,4.6,119,7.3,0.186,41,37,4.4,4.9,3.8,0.00043,0.00059,48.7,46.5,32,0,0.0,5.61,0.00,0.00,1E-6
hly,AgWx,bloomfield,441,26OCT2019:04:00:00,28.9,12.2,26.7,26.1,26.8,24.5,6,0.0209,6.6,4.7,124,6.5,0.192,41,38,4.8,5.5,3.8,0.00044,0.00060,48.2,46.2,32,0,0.0,5.61,0.00,0.00,1E-6
hly,AgWx,bloomfield,441,26OCT2019:05:00:00,28.6,12.11,26.3,25.7,26.5,24.9,6,0.0208,7.1,4.9,124,7.5,0.187,41,39,4.5,5.4,4.0,0.00045,0.00062,47.9,45.9,32,0,0.0,5.61,0.00,0.00,1E-6
hly,AgWx,bloomfield,441,26OCT2019:06:00:00,28.0,12.09,25.9,25.4,26.1,24.7,10,0.0369,7.0,5.0,123,7.0,0.189,42,39,4.7,6.3,3.8,0.00044,0.00082,47.5,45.6,31,0,0.0,5.61,0.00,0.00,0.0143589592
hly,AgWx,bloomfield,441,26OCT2019:07:00:00,29.2,12.6,29.3,28.0,31.5,25.5,120,0.4322,9.4,5.5,112,9.9,0.212,42,37,6.2,10.3,3.7,0.00185,0.00315,47.1,45.3,31,0,0.0,5.61,0.00,0.00,0.33991188
hly,AgWx,bloomfield,441,26OCT2019:08:00:00,35.8,13.43,36.7,35.5,38.5,31.4,289,1.0390,12.0,7.5,79,13,0.260,43,30,11.3,13.6,9.1,0.00520,0.00740,46.9,45.0,31,0,0.0,5.61,0.00,0.00,1.0393559
hly,AgWx,bloomfield,441,26OCT2019:09:00:00,44.0,14.26,44.4,42.5,46.6,38.2,452,1.6287,11.0,6.5,78,16,0.265,34,24,12.0,14.5,10.5,0.00893,0.01173,47.1,44.9,31,0,0.0,5.61,0.00,0.00,1.6831457
hly,AgWx,bloomfield,441,26OCT2019:10:00:00,52.2,14.06,50.5,49.7,52.7,46.4,577,2.0753,7.3,4.0,89,26,0.272,25,21,12.7,14.5,11.4,0.01222,0.01489,47.6,44.8,31,0,0.0,5.61,0.00,0.00,2.1640199
hly,AgWx,bloomfield,441,26OCT2019:11:00:00,59.1,13.65,55.6,54.8,57.7,51.5,647,2.3295,6.6,2.0,100,63,0.306,22,20,15.1,17.6,12.8,0.01414,0.01620,48.5,45.0,31,0,0.0,5.61,0.00,0.00,2.4315905
hly,AgWx,bloomfield,441,26OCT2019:12:00:00,63.7,13.54,60.1,59.4,61.6,56.5,662,2.3819,6.9,2.3,324,61,0.339,21,18,17.6,19.4,16.1,0.01544,0.01788,49.8,45.4,31,0,0.0,5.61,0.00,0.00,2.465983
hly,AgWx,bloomfield,441,26OCT2019:13:00:00,67.4,13.49,64.1,62.8,64.7,60.5,616,2.2161,9.5,3.8,311,42,0.400,22,19,21.3,23.7,18.7,0.01550,0.01881,51.3,46.0,31,0,0.0,5.61,0.00,0.00,2.2627552
hly,AgWx,bloomfield,441,26OCT2019:14:00:00,69.1,13.44,64.4,64.8,66.4,63.5,514,1.8497,9.9,4.6,292,34,0.419,21,19,23.1,23.9,22.6,0.01361,0.01731,52.9,46.8,32,0,0.0,5.61,0.00,0.00,1.8481899
hly,AgWx,bloomfield,441,26OCT2019:15:00:00,69.5,13.43,66.3,66.1,67.2,64.5,365,1.3133,10.7,4.3,279,28,0.408,20,18,22.4,23.9,21.8,0.00989,0.01331,54.2,47.6,32,0,0.0,5.61,0.00,0.00,1.2608745
hly,AgWx,bloomfield,441,26OCT2019:16:00:00,68.7,13.41,65.1,65.3,66.4,63.7,190,0.6839,7.2,3.6,303,20,0.400,20,18,21.8,22.3,21.5,0.00482,0.00747,55.0,48.3,32,0,0.0,5.61,0.00,0.00,0.56605578
hly,AgWx,bloomfield,441,26OCT2019:17:00:00,64.3,12.52,59.3,60.8,63.8,56.9,37,0.1318,5.2,2.1,198,5.3,0.386,23,20,21.1,22.5,19.5,-0.00014,0.00029,55.2,48.9,32,0,0.0,5.61,0.00,0.00,0.0610622703
hly,AgWx,bloomfield,441,26OCT2019:18:00:00,56.6,12.48,52.0,52.7,56.7,46.0,6,0.0229,6.1,4.1,151,12,0.347,32,23,18.9,19.7,16.7,0.00100,0.00148,54.7,49.2,32,0,0.0,5.61,0.00,0.00,1E-6
hly,AgWx,bloomfield,441,26OCT2019:19:00:00,50.5,12.5,46.4,44.7,48.2,42.3,6,0.0220,6.0,3.1,103,21,0.334,36,29,17.2,18.5,15.7,0.00034,0.00056,54.2,49.3,32,0,0.0,5.61,0.00,0.00,1E-6
hly,AgWx,bloomfield,441,26OCT2019:20:00:00,46.2,12.5,45.0,44.2,45.3,41.7,6,0.0214,5.5,3.0,104,24,0.346,37,33,18.2,18.9,17.0,0.00026,0.00046,53.5,49.1,32,0,0.0,5.61,0.00,0.00,1E-6
hly,AgWx,bloomfield,441,26OCT2019:21:00:00,45.0,12.43,42.9,42.7,44.6,41.5,6,0.0213,7.6,4.5,122,8.3,0.337,38,34,17.7,18.4,16.6,0.00071,0.00103,52.9,48.9,32,0,0.0,5.61,0.00,0.00,1E-6
hly,AgWx,bloomfield,441,26OCT2019:22:00:00,44.6,12.41,43.2,42.9,43.7,42.3,6,0.0215,8.2,5.7,129,8.7,0.344,38,35,18.1,19.3,17.5,0.00100,0.00136,52.4,48.7,32,0,0.0,5.61,0.00,0.00,1E-6
hly,AgWx,bloomfield,441,26OCT2019:23:00:00,44.5,12.44,43.7,43.1,43.5,42.8,6,0.0055,8.2,5.8,134,9.9,0.378,40,38,19.7,20.5,19.0,0.00024,0.00033,52.1,48.5,32,0,0.0,5.61,0.00,0.00,2.5E-7
hly,AgWx,bluebell,436,26OCT2019:00:00:00,28.3,12.68,28.0,28.0,29.4,26.4,0,0.0001,5.1,1.8,96,35,0.293,62,53,14.5,15.5,14.0,-0.00034,-0.00043,40.6,43.2,9,0,36.1,8.57,0.00,0.00,1E-6
hly,AgWx,bluebell,436,26OCT2019:01:00:00,26.8,12.53,25.7,25.7,27.7,23.2,0,0.0001,4.2,1.5,269,29,0.288,69,56,13.9,14.8,13.1,-0.00040,-0.00051,40.2,42.9,9,0,36.9,8.57,0.00,0.00,1E-6
hly,AgWx,bluebell,436,26OCT2019:02:00:00,25.8,12.63,26.3,25.3,27.0,23.0,0,0.0001,5.4,1.9,263,24,0.284,70,57,14.0,15.3,13.1,-0.00033,-0.00040,39.8,42.6,9,0,36.4,8.57,0.00,0.00,1E-6
hly,AgWx,bluebell,436,26OCT2019:03:00:00,25.2,12.61,25.4,25.0,26.1,23.7,0,0.0001,3.9,1.0,177,9.9,0.285,66,59,13.8,14.6,12.9,-0.00054,-0.00076,39.4,42.3,9,0,36.5,8.57,0.00,0.00,1E-6
hly,AgWx,bluebell,436,26OCT2019:04:00:00,24.0,12.46,25.0,24.1,25.9,21.5,0,0.0001,3.9,1.2,303,25,0.283,69,59,13.6,14.9,12.0,-0.00047,-0.00062,39.1,42.0,9,0,36.7,8.57,0.00,0.00,1E-6
hly,AgWx,bluebell,436,26OCT2019:05:00:00,23.6,12.44,25.2,24.1,25.6,22.0,0,0.0001,4.0,1.3,197,38,0.289,74,59,13.8,15.5,13.0,-0.00044,-0.00057,38.8,41.8,9,0,36.5,8.57,0.00,0.00,1E-6
hly,AgWx,bluebell,436,26OCT2019:06:00:00,23.2,12.46,24.7,23.7,25.6,20.8,1,0.0033,5.2,2.4,345,20,0.281,72,61,13.5,14.8,12.5,-0.00022,-0.00024,38.5,41.5,10,0,36.4,8.57,0.00,0.00,0.0027961528
hly,AgWx,bluebell,436,26OCT2019:07:00:00,24.4,12.47,27.3,25.5,30.0,23.3,66,0.2359,5.9,1.4,274,20,0.300,71,57,14.9,17.3,13.1,-0.00009,0.00010,38.3,41.3,9,0,36.9,8.57,0.00,0.00,0.1870895
hly,AgWx,bluebell,436,26OCT2019:08:00:00,34.6,14.08,39.8,37.9,44.5,29.9,229,0.8250,2.0,0.4,196,25,0.353,57,34,18.4,20.4,16.2,0.00258,0.00288,38.8,41.1,9,0,43.5,8.57,0.00,0.00,0.7932096
hly,AgWx,bluebell,436,26OCT2019:09:00:00,47.6,14.35,46.5,45.5,46.6,43.8,394,1.4188,6.6,2.3,192,32,0.326,35,29,16.9,19.0,15.6,0.00703,0.00842,40.3,41.3,9,0,52.4,8.57,0.00,0.00,1.4155283
hly,AgWx,bluebell,436,26OCT2019:10:00:00,52.0,14.31,47.5,47.0,49.0,45.2,528,1.9003,7.5,3.9,164,32,0.334,32,29,17.6,18.8,16.7,0.01045,0.01270,42.4,41.8,9,0,54.7,8.56,0.00,0.00,1.8945919
hly,AgWx,bluebell,436,26OCT2019:11:00:00,53.5,13.88,51.0,49.9,52.6,46.9,608,2.1875,7.7,3.8,147,30,0.353,31,27,18.5,20.2,17.1,0.01266,0.01512,44.6,42.6,9,0,59.6,8.56,0.00,0.00,2.18219
hly,AgWx,bluebell,436,26OCT2019:12:00:00,54.7,13.81,53.6,52.6,55.0,50.4,631,2.2702,9.7,4.2,161,25,0.365,28,25,19.5,20.6,18.5,0.01384,0.01667,46.7,43.6,9,0,62.5,8.55,0.00,0.00,2.2527124
hly,AgWx,bluebell,436,26OCT2019:13:00:00,57.0,13.76,56.1,55.1,56.8,53.4,593,2.1332,10.4,5.1,142,25,0.379,27,24,20.3,21.5,19.4,0.01378,0.01711,48.3,44.6,9,0,62.5,8.55,0.00,0.00,2.1012903
hly,AgWx,bluebell,436,26OCT2019:14:00:00,59.6,13.69,58.0,57.3,58.8,55.9,498,1.7940,11.0,6.1,140,17,0.385,25,23,20.8,21.5,20.2,0.01254,0.01636,49.0,45.5,9,0,61.4,8.55,0.00,0.00,1.7416885
hly,AgWx,bluebell,436,26OCT2019:15:00:00,61.7,13.7,58.9,58.1,58.8,57.3,372,1.3384,9.4,5.5,148,15,0.396,25,23,21.3,22.9,20.5,0.00965,0.01312,49.0,46.1,9,0,61.2,8.55,0.00,0.00,1.206648
hly,AgWx,bluebell,436,26OCT2019:16:00:00,61.1,13.68,56.0,56.6,58.6,52.6,177,0.6356,12.3,3.7,170,30,0.418,33,23,22.2,24.3,20.6,0.00394,0.00610,48.6,46.5,9,0,55.4,8.55,0.01,0.00,0.56227584
hly,AgWx,bluebell,436,26OCT2019:17:00:00,54.7,13.1,47.7,49.0,53.9,44.1,35,0.1264,5.8,1.4,271,63,0.403,42,29,22.5,24.1,20.9,-0.00040,-0.00013,47.5,46.6,9,0,44.3,8.55,0.00,0.00,0.069238243
hly,AgWx,bluebell,436,26OCT2019:18:00:00,47.0,12.9,43.9,44.5,47.4,42.4,0,0.0002,3.9,1.3,206,54,0.380,43,34,20.8,21.8,19.5,-0.00056,-0.00073,46.4,46.4,9,0,37.2,8.55,0.00,0.00,1E-6
hly,AgWx,bluebell,436,26OCT2019:19:00:00,42.6,12.85,40.9,40.6,43.3,38.3,0,0.0001,5.5,1.6,270,24,0.374,49,38,20.0,21.0,18.6,-0.00047,-0.00061,45.3,46.1,9,0,35.9,8.56,0.00,0.00,1E-6
hly,AgWx,bluebell,436,26OCT2019:20:00:00,40.6,12.82,38.9,39.2,41.1,37.9,0,0.0001,7.4,3.2,341,29,0.373,49,43,20.0,20.9,19.2,0.00014,0.00029,44.5,45.7,10,0,36.2,8.56,0.00,0.00,1E-6
hly,AgWx,bluebell,436,26OCT2019:21:00:00,39.2,12.68,36.4,36.5,41.7,30.6,0,0.0001,7.4,2.3,346,36,0.356,58,41,19.3,20.5,16.6,-0.00019,-0.00018,43.9,45.4,9,0,35.9,8.57,0.00,0.00,1E-6
hly,AgWx,bluebell,436,26OCT2019:22:00:00,34.5,12.75,30.9,30.2,32.9,27.4,0,0.0001,4.1,0.9,264,30,0.357,70,55,18.7,22.1,16.5,-0.00064,-0.00088,43.1,45.0,9,0,36.7,8.57,0.00,0.00,1E-6
hly,AgWx,bluebell,436,26OCT2019:23:00:00,32.1,12.75,36.0,29.9,34.8,27.7,0,0.0000,5.3,2.0,307,42,0.429,72,63,20.1,23.4,17.6,-0.00009,-0.00010,42.6,44.8,9,0,36.8,8.56,0.00,0.00,2.5E-7
hly,AgWx,bluecreek,403,26OCT2019:00:00:00,36.9,12.89,40.3,39.9,42.5,37.4,0,0.0000,6.8,2.9,252,7.4,0.372,51,40,20.4,22.7,18.2,0.00007,0.00019,42.6,43.6,47,.,.,8.91,0.00,0.00,1E-6
hly,AgWx,bluecreek,403,26OCT2019:01:00:00,37.0,12.88,40.4,40.7,43.6,36.1,0,0.0000,4.7,2.4,245,8.2,0.313,49,31,16.1,19.7,14.2,0.00002,0.00015,42.1,43.2,47,.,.,8.91,0.00,0.00,1E-6
hly,AgWx,bluecreek,403,26OCT2019:02:00:00,36.6,12.85,40.8,40.0,41.3,38.4,0,0.0000,5.2,2.7,317,13,0.306,39,33,15.3,16.1,14.6,0.00010,0.00025,41.6,42.9,47,.,.,8.91,0.00,0.00,1E-6
hly,AgWx,bluecreek,403,26OCT2019:03:00:00,36.3,12.82,40.1,39.6,41.5,38.0,0,0.0000,6.4,3.6,319,3.3,0.325,43,34,16.6,17.8,14.8,0.00033,0.00052,41.1,42.8,47,.,.,8.91,0.00,0.00,1E-6
hly,AgWx,bluecreek,403,26OCT2019:04:00:00,35.8,12.8,37.6,38.3,41.9,34.9,0,0.0000,6.8,3.6,288,15,0.332,51,35,17.2,18.6,16.2,0.00025,0.00041,40.7,42.3,47,.,.,8.91,0.00,0.00,1E-6
hly,AgWx,bluecreek,403,26OCT2019:05:00:00,34.6,12.76,37.9,36.8,39.0,34.0,0,0.0000,6.4,3.1,225,12,0.342,55,42,18.1,19.5,17.0,0.00001,0.00005,40.2,42.2,47,.,.,8.91,0.00,0.00,1E-6
hly,AgWx,bluecreek,403,26OCT2019:06:00:00,34.0,12.73,35.6,35.9,38.9,32.5,0,0.0006,7.3,3.8,197,27,0.364,60,42,19.3,20.6,17.6,0.00012,0.00023,39.8,41.9,47,.,.,8.91,0.00,0.00,0.0001558923
hly,AgWx,bluecreek,403,26OCT2019:07:00:00,34.3,12.74,39.6,38.1,41.6,33.8,43,0.1541,6.3,3.5,266,9.3,0.383,55,44,20.6,22.5,19.4,0.00030,0.00100,39.4,41.8,47,.,.,8.91,0.00,0.00,0.105797285
hly,AgWx,bluecreek,403,26OCT2019:08:00:00,41.0,14.72,45.5,44.0,46.9,41.0,191,0.6868,3.6,1.7,17,19,0.440,49,37,23.6,26.5,21.3,0.00246,0.00318,39.2,41.4,47,.,.,8.90,0.01,0.00,0.62603308
hly,AgWx,bluecreek,403,26OCT2019:09:00:00,49.2,14.62,47.8,46.9,48.8,45.4,351,1.2652,12.0,3.7,246,22,0.563,56,39,28.7,33.7,22.7,0.00630,0.00776,39.6,41.3,47,.,.,8.90,0.00,0.00,1.2222337